Regional Weather Roundup
Issued by NWS

Home | Current Version | Previous Version | Text Only | Print | Product List | Glossary On
Versions: 1 2 3 4 5 6 7 8 9 10 11 12 13 14 15 16 17 18 19 20 21 22 23 24 25 26 27 28 29 30 31 32 33 34 35 36 37 38 39 40 41 42 43 44 45 46 47 48 49 50
000
ASUS45 KPSR 271810
RWRAZ

ARIZONA HOURLY REGIONAL WEATHER ROUNDUP
NATIONAL WEATHER SERVICE PHOENIX AZ
1100 AM MST MON FEB 27 2017

NOTE: FAIR INDICATES FEW OR NO CLOUDS BELOW 12,000 FEET WITH NO
SIGNIFICANT WEATHER AND/OR OBSTRUCTIONS TO VISIBILITY.

AZZ001>003-036-271900-
NORTHWEST ARIZONA

CITY           SKY/WX    TMP DP  RH WIND       PRES   REMARKS
BULLHEAD CITY  CLOUDY    57  39  51 S15       29.89S
KINGMAN        CLOUDY    49  19  30 S16G28    29.89R
6HR MIN TEMP:  34; 6HR MAX TEMP:  50;

$$

AZZ004>008-015-016-018-271900-
NORTH CENTRAL ARIZONA

CITY           SKY/WX    TMP DP  RH WIND       PRES   REMARKS
GRAND CANYON   LGT SNOW  33  28  81 S16G24    29.88F WCI  23
6HR MIN TEMP:  31; 6HR MAX TEMP:  35; 6HR PCP: TRACE;

WILLIAMS       MIX PCPN  34  30  86 S15G22    29.90S WCI  24
PRESCOTT       CLOUDY    40  35  83 SE10      29.94R WCI  33
6HR MIN TEMP:  37; 6HR MAX TEMP:  41;

FLAGSTAFF      LGT SNOW  30  29  96 SW17G29   29.91F FOG     WCI  18
6HR MIN TEMP:  29; 6HR MAX TEMP:  31; 6HR PCP:  0.02;

PAYSON         CLOUDY    43  32  65 S8G14     30.02S
PAGE           PTSUNNY   50  15  24 SW10G22   29.78S
6HR MIN TEMP:  38; 6HR MAX TEMP:  51;

$$

AZZ009>014-017-271900-
NORTHEAST ARIZONA

CITY           SKY/WX    TMP DP  RH WIND       PRES   REMARKS
WINSLOW        PTSUNNY   49  26  41 SW15      29.90F
6HR MIN TEMP:  39; 6HR MAX TEMP:  49;

SAINT JOHNS    PTSUNNY   46  21  37 SE6       29.95
6HR MIN TEMP:  22; 6HR MAX TEMP:  47;

WINDOW ROCK    CLOUDY    39  24  55 SW25G32   29.93S WCI  28
6HR MIN TEMP:  33; 6HR MAX TEMP:  39;

SHOW LOW       SUNNY     41  23  48 SW29G39   29.97F
$$

AZZ023-271900-
GREATER PHOENIX AREA

CITY           SKY/WX    TMP DP  RH WIND       PRES   REMARKS
PHOENIX        CLOUDY    58  39  49 SE8       29.96F
6HR MIN TEMP:  48; 6HR MAX TEMP:  58;

BUCKEYE        CLOUDY    57  39  51 E12       29.97S
GLENDALE       CLOUDY    57  39  51 CALM      29.99S
LUKE AFB       CLOUDY    56  40  53 CALM      29.96F
6HR MIN TEMP:  46; 6HR MAX TEMP:  56;

DEER VALLEY    CLOUDY    56  39  53 SE10      29.97S
6HR MIN TEMP:  48; 6HR MAX TEMP:  56;

SCOTTSDALE     CLOUDY    59  38  45 SE7       29.99F
6HR MIN TEMP:  47; 6HR MAX TEMP:  59;

MESA-FALCON    CLOUDY   N/A N/A N/A SE16      29.95F
MESA-GATEWAY   MOSUNNY   61  39  44 SE13      29.99F
CHANDLER       PTSUNNY   61  37  41 SE7       29.97F
$$

AZZ027-028-271900-
SOUTHWEST MARICOPA COUNTY AND PINAL COUNTY

CITY           SKY/WX    TMP DP  RH WIND       PRES   REMARKS
CASA GRANDE    NOT AVBL
GILA BEND      PTSUNNY   64  37  36 SE10      29.93S
$$

AZZ503-504-507>509-271900-
SOUTHEAST ARIZONA

CITY           SKY/WX    TMP DP  RH WIND       PRES   REMARKS
TUCSON         PTSUNNY   63  34  33 SE7       30.03F
6HR MIN TEMP:  42; 6HR MAX TEMP:  63;

DAVIS-MONTHAN  CLOUDY    62  33  33 S5        30.03F
6HR MIN TEMP:  42; 6HR MAX TEMP:  62;

NOGALES        PTSUNNY   60  33  36 SE12      30.06
6HR MIN TEMP:  36; 6HR MAX TEMP:  60;

SIERRA VISTA   MOSUNNY   57  19  23 W9        30.07F
6HR MIN TEMP:  36; 6HR MAX TEMP:  57;

DOUGLAS        MOSUNNY   58  30  34 VRB6      30.06F
6HR MIN TEMP:  33; 6HR MAX TEMP:  58;

SAFFORD        SUNNY     57  29  34 E6        30.03F
6HR MIN TEMP:  30; 6HR MAX TEMP:  58;

$$

AZZ020-021-025-026-031-271900-
SOUTHWEST ARIZONA

CITY           SKY/WX    TMP DP  RH WIND       PRES   REMARKS
YUMA           CLOUDY    64  53  67 S21G28    29.91S
6HR MIN TEMP:  56; 6HR MAX TEMP:  64;

$$

CAZ031-033-041-043-047-048-061-271900-
SOUTHERN CALIFORNIA

CITY           SKY/WX    TMP DP  RH WIND       PRES   REMARKS
DOWNTOWN L.A.  CLOUDY    56  44  64 VRB3      29.90S
6HR MIN TEMP:  53; 6HR MAX TEMP:  57;

L.A. AIRPORT   CLOUDY    55  45  68 E6        29.90F
6HR MIN TEMP:  50; 6HR MAX TEMP:  55;

SAN DIEGO      LGT RAIN  58  55  90 S25G35    29.95R FOG
6HR MIN TEMP:  55; 6HR MAX TEMP:  59; 6HR PCP:  0.49;

BURBANK        CLOUDY    52  40  63 CALM      29.90R
6HR MIN TEMP:  49; 6HR MAX TEMP:  52; 6HR PCP: TRACE;

ONTARIO        CLOUDY    51  44  77 NW3       29.91R
6HR MIN TEMP:  47; 6HR MAX TEMP:  51; 6HR PCP: TRACE;

RIVERSIDE      CLOUDY    51  46  83 N3        29.90F
6HR MIN TEMP:  46; 6HR MAX TEMP:  51;

PALM SPRINGS   CLOUDY    55  47  74 CALM      29.92S
6HR MIN TEMP:  50; 6HR MAX TEMP:  55; 6HR PCP: TRACE;

EL CENTRO NAS  LGT RAIN  56  49  77 E12       29.92S
6HR MIN TEMP:  53; 6HR MAX TEMP:  57; 6HR PCP:  0.02;

IMPERIAL       LGT RAIN  57  51  80 SE6       29.90R
                                      6HR PCP:  0.04;

BLYTHE         CLOUDY    59  45  59 E3        29.92S
6HR MIN TEMP:  51; 6HR MAX TEMP:  59;

NEEDLES        LGT RAIN  54  47  77 SW14      29.91R
6HR MIN TEMP:  50; 6HR MAX TEMP:  58; 6HR PCP: TRACE;

$$

NVZ020-UTZ003-271900-
SOUTHERN NEVADA-UTAH

CITY           SKY/WX    TMP DP  RH WIND       PRES   REMARKS
LAS VEGAS      CLOUDY    54  30  40 S13G22    29.78R
6HR MIN TEMP:  47; 6HR MAX TEMP:  54;

SALT LAKE CITY LGT SNOW  31  29  92 SE8       29.69R VSB 1   WCI  23
6HR MIN TEMP:  29; 6HR MAX TEMP:  33; 6HR PCP:  0.18;

$$

NMZ009-TXZ055-271900-
NEW MEXICO-WEST TEXAS

CITY           SKY/WX    TMP DP  RH WIND       PRES   REMARKS
ALBUQUERQUE    MOSUNNY   47  23  38 S14       29.97S
6HR MIN TEMP:  31; 6HR MAX TEMP:  47;

EL PASO        MOSUNNY   61  23  23 SW10      30.04R
6HR MIN TEMP:  38; 6HR MAX TEMP:  61;

$$


........................KEY........................
SKY/WX - SKY CONDITION/WEATHER
TMP    - TEMPERATURE IN FAHRENHEIT
DP     - DEW POINT IN FAHRENHEIT
RH     - RELATIVE HUMIDITY IN PERCENT
WIND   - DIRECTION AND SPEED IN MILES PER HOUR (MPH)
VRB    - VARIABLE WIND DIRECTION
PRES   - MEAN SEA LEVEL PRESSURE IN INCHES OF MERCURY
         F - FALLING PRESSURE   R - RISING PRESSURE
         S - STEADY PRESSURE
VSB    - VISIBILITY IN MILES
HX     - HEAT INDEX IN FAHRENHEIT
WCI    - WIND CHILL INDEX IN FAHRENHEIT
TC     - TEMPERATURE IN CELSIUS WHICH IS ALSO KNOWN AS
         TEMPERATURE IN CENTIGRADE
AFB    - AIR FORCE BASE
         LUKE AFB IS LUKE AIR FORCE BASE
         DAVIS-MONTHAN IS DAVIS-MONTHAN AIR FORCE BASE
NAS    - NAVAL AIR STATION
         EL CENTRO NAS IS EL CENTRO NAVAL AIR STATION
N/A    - NOT AVAILABLE




USA.gov is the U.S. government's official web portal to all federal, state and local government web resources and services.